�N����,����,�~����,�C��,���x,�C��,����,���ϕ���,�ő�u�ԕ���,�ő厞����,���˗�,�I�_���x,�n�����x,�ő啗���N��,DTYPE
"17/03/21","00:10",0.0,9.2,84.1,1010.0,327.0,2.2,3.4,332.7,0.00,6.7,10.2,"00:01:20",1
"17/03/21","00:20",0.2,8.9,85.4,1009.7,334.1,1.3,2.2,331.8,0.00,6.6,10.1,"00:10:56",1
"17/03/21","00:30",0.4,8.6,87.2,1009.7,305.8,1.2,1.7,330.9,0.00,6.6,10.1,"00:20:08",1
"17/03/21","00:40",0.0,8.6,88.7,1009.7,319.0,1.2,2.0,335.4,0.00,6.9,10.0,"00:32:16",1
"17/03/21","00:50",0.2,8.4,89.7,1009.0,330.8,1.5,2.0,330.7,0.00,6.8,10.2,"00:43:04",1
"17/03/21","01:00",0.0,8.4,90.6,1009.5,296.2,1.3,2.4,332.8,0.00,7.0,10.0,"00:52:24",1
"17/03/21","01:10",0.2,8.3,91.3,1009.3,286.9,1.1,1.8,279.6,0.00,7.0,10.0,"01:01:04",1
"17/03/21","01:20",0.2,8.3,91.9,1009.3,303.7,1.2,1.8,336.4,0.00,7.1,9.9,"01:15:36",1
"17/03/21","01:30",0.4,8.3,92.5,1009.5,304.1,0.8,1.4,314.5,0.00,7.2,9.8,"01:20:48",1
"17/03/21","01:40",0.6,8.2,93.0,1009.3,299.2,0.6,1.0,290.4,0.00,7.2,10.0,"01:32:24",1
"17/03/21","01:50",0.6,8.2,93.5,1008.8,300.2,0.8,1.0,343.6,0.00,7.3,9.8,"01:41:14",1
"17/03/21","02:00",0.8,8.2,93.9,1008.6,293.4,0.7,1.1,306.2,0.00,7.3,9.7,"01:54:08",1
"17/03/21","02:10",0.4,8.2,94.4,1009.0,254.3,0.7,1.3,215.6,0.00,7.4,9.8,"02:03:52",1
"17/03/21","02:20",0.8,8.2,94.5,1008.3,337.8,1.2,2.2,343.1,0.00,7.4,9.6,"02:13:54",1
"17/03/21","02:30",0.6,8.1,94.7,1008.1,39.4,0.6,1.2,353.4,0.00,7.3,9.7,"02:25:36",1
"17/03/21","02:40",1.0,8.1,94.7,1008.1,6.6,0.5,1.1,31.3,0.00,7.3,9.6,"02:32:16",1
"17/03/21","02:50",0.8,7.9,94.6,1007.8,354.1,0.7,1.9,356.2,0.00,7.1,9.4,"02:43:20",1
"17/03/21","03:00",0.6,7.8,94.4,1007.1,334.9,0.5,0.9,348.0,0.00,7.0,9.7,"02:54:56",1
"17/03/21","03:10",0.8,7.7,94.4,1007.4,309.8,0.7,1.2,336.4,0.00,6.9,9.6,"03:06:48",1
"17/03/21","03:20",1.0,7.6,94.5,1007.1,316.4,0.8,1.6,319.3,0.00,6.8,9.5,"03:13:52",1
"17/03/21","03:30",0.6,7.5,94.5,1006.7,318.8,0.7,1.3,351.7,0.00,6.7,9.5,"03:25:36",1
"17/03/21","03:40",0.4,7.5,94.5,1006.4,304.3,1.2,1.6,335.0,0.00,6.7,9.4,"03:30:16",1
"17/03/21","03:50",0.4,7.5,94.7,1006.2,295.7,1.2,1.9,304.1,0.00,6.7,9.4,"03:41:52",1
"17/03/21","04:00",0.2,7.5,94.9,1006.0,285.7,1.0,1.4,266.1,0.00,6.8,9.3,"03:51:04",1
"17/03/21","04:10",0.2,7.5,95.2,1005.7,307.0,0.8,1.4,320.0,0.00,6.8,9.4,"04:04:00",1
"17/03/21","04:20",0.4,7.5,95.3,1006.0,286.3,1.3,2.0,317.4,0.00,6.8,9.3,"04:16:32",1
"17/03/21","04:30",0.6,7.5,95.5,1005.5,271.2,1.2,2.1,258.9,0.00,6.9,9.4,"04:28:16",1
"17/03/21","04:40",0.8,7.5,95.5,1005.7,283.4,1.2,1.7,290.1,0.00,6.9,9.2,"04:31:44",1
"17/03/21","04:50",1.0,7.4,95.7,1005.7,307.8,1.3,2.1,306.0,0.00,6.8,9.3,"04:48:58",1
"17/03/21","05:00",0.6,7.4,95.9,1005.5,310.0,1.2,1.7,305.5,0.00,6.8,9.2,"04:50:48",1
"17/03/21","05:10",0.6,7.3,96.1,1005.2,284.1,1.1,1.8,273.9,0.00,6.8,9.3,"05:09:36",1
"17/03/21","05:20",0.6,7.3,96.3,1005.0,283.1,1.3,1.7,268.9,0.00,6.8,9.4,"05:16:24",1
"17/03/21","05:30",0.6,7.4,96.5,1005.0,294.7,1.2,1.8,287.4,0.00,6.9,9.2,"05:29:04",1
"17/03/21","05:40",0.2,7.3,96.6,1004.5,300.6,1.1,1.4,300.5,0.00,6.8,9.3,"05:32:40",1
"17/03/21","05:50",0.2,7.3,96.8,1004.5,323.5,1.3,2.1,327.9,0.00,6.9,9.1,"05:40:40",1
"17/03/21","06:00",0.0,7.3,96.9,1004.5,281.0,1.1,1.6,289.4,0.00,6.9,9.3,"05:59:44",1
"17/03/21","06:10",0.2,7.4,97.0,1004.1,281.1,1.2,1.7,279.1,0.00,7.0,9.2,"06:01:28",1
"17/03/21","06:20",0.2,7.4,97.2,1004.1,308.3,1.1,1.4,300.6,0.00,7.0,9.0,"06:10:08",1
"17/03/21","06:30",0.2,7.5,97.3,1003.8,287.6,0.8,1.1,274.2,0.00,7.1,9.0,"06:22:08",1
"17/03/21","06:40",0.4,7.5,97.4,1003.6,308.2,1.2,1.6,326.2,0.00,7.2,8.9,"06:35:28",1
"17/03/21","06:50",0.2,7.6,97.5,1003.4,279.3,0.8,1.3,265.4,0.00,7.3,9.0,"06:49:28",1
"17/03/21","07:00",0.2,7.7,97.6,1003.1,274.0,1.1,1.9,264.9,0.00,7.4,9.3,"06:51:52",1
"17/03/21","07:10",0.0,7.8,97.7,1003.4,279.7,1.1,1.6,268.0,0.00,7.5,9.3,"07:05:12",1
"17/03/21","07:20",0.2,7.8,97.6,1002.9,282.0,1.3,1.7,269.5,0.00,7.5,9.1,"07:11:44",1
"17/03/21","07:30",0.0,7.9,97.7,1002.4,276.3,1.2,1.6,271.3,0.00,7.6,9.0,"07:21:12",1
"17/03/21","07:40",0.2,8.0,97.8,1002.9,276.0,1.1,1.4,262.3,0.00,7.7,9.1,"07:33:36",1
"17/03/21","07:50",0.0,8.2,97.7,1002.6,287.4,1.3,1.8,299.7,0.00,7.9,9.1,"07:42:08",1
"17/03/21","08:00",0.0,8.3,97.7,1002.4,281.9,0.7,1.2,278.8,0.00,8.0,9.1,"07:50:40",1
"17/03/21","08:10",0.2,8.3,97.8,1002.6,275.3,1.0,1.3,266.6,0.00,8.0,9.1,"08:03:20",1
"17/03/21","08:20",0.2,8.5,97.7,1002.4,299.0,0.6,1.4,318.6,0.01,8.2,9.2,"08:10:08",1
"17/03/21","08:30",0.2,8.6,97.8,1002.4,296.9,0.8,1.3,318.5,0.02,8.3,9.0,"08:20:24",1
"17/03/21","08:40",0.2,8.8,97.7,1002.6,295.7,1.2,1.9,318.7,0.02,8.5,9.2,"08:38:32",1
"17/03/21","08:50",0.2,8.8,97.5,1002.4,280.5,1.1,1.6,306.3,0.02,8.5,9.2,"08:45:04",1
"17/03/21","09:00",0.2,8.9,97.6,1002.2,293.5,1.3,1.8,331.8,0.02,8.6,9.1,"08:54:00",1
"17/03/21","09:10",0.2,9.0,97.6,1001.9,290.7,1.2,1.6,297.3,0.03,8.7,9.3,"09:04:40",1
"17/03/21","09:20",0.2,9.3,97.5,1001.7,275.4,1.2,1.9,267.8,0.05,9.0,9.4,"09:13:28",1
"17/03/21","09:30",0.2,9.3,97.3,1001.9,278.9,1.2,1.8,297.8,0.03,8.9,9.4,"09:22:00",1
"17/03/21","09:40",0.4,9.4,97.2,1001.2,279.3,1.3,1.8,259.7,0.04,9.0,9.5,"09:32:00",1
"17/03/21","09:50",0.2,9.7,97.2,1001.0,286.9,1.2,1.7,301.8,0.05,9.3,9.3,"09:41:44",1
"17/03/21","10:00",0.2,9.7,97.0,1001.2,273.3,1.3,1.7,273.1,0.03,9.3,9.6,"09:51:06",1
"17/03/21","10:10",0.0,9.6,96.9,1001.5,274.5,1.3,1.8,261.7,0.02,9.2,9.5,"10:04:36",1
"17/03/21","10:20",0.0,9.8,96.9,1001.0,275.8,1.1,1.4,264.0,0.04,9.4,9.4,"10:10:58",1
"17/03/21","10:30",0.2,9.9,96.7,1000.8,285.9,1.6,2.1,302.4,0.05,9.4,9.5,"10:24:40",1
"17/03/21","10:40",0.0,9.9,96.7,1001.0,274.4,1.5,2.4,298.4,0.02,9.4,9.4,"10:32:56",1
"17/03/21","10:50",0.4,9.9,96.6,1000.8,279.9,1.5,2.2,299.6,0.02,9.4,9.5,"10:43:40",1
"17/03/21","11:00",0.6,9.8,96.5,1001.0,261.6,1.3,1.9,214.0,0.02,9.3,9.7,"10:53:50",1
"17/03/21","11:10",0.4,9.9,96.5,1000.8,277.7,1.0,1.6,266.4,0.03,9.4,9.7,"11:07:22",1
"17/03/21","11:20",0.4,10.0,96.5,1000.5,284.4,1.6,2.5,327.9,0.05,9.5,9.4,"11:18:48",1
"17/03/21","11:30",0.4,10.1,96.4,1000.5,292.7,1.3,2.2,332.3,0.05,9.6,9.8,"11:23:04",1
"17/03/21","11:40",0.2,10.2,96.2,1000.0,268.6,1.0,1.4,271.4,0.05,9.7,9.8,"11:30:32",1
"17/03/21","11:50",0.4,10.4,96.1,1000.3,273.3,1.0,1.2,271.7,0.06,9.8,9.9,"11:42:08",1
"17/03/21","12:00",0.2,10.4,95.8,1000.0,258.3,0.8,1.3,248.0,0.04,9.8,9.7,"11:59:44",1
"17/03/21","12:10",0.4,10.3,96.0,999.8,263.7,1.5,2.2,263.9,0.04,9.7,9.9,"12:07:12",1
"17/03/21","12:20",0.4,10.3,95.9,1000.0,276.9,1.6,2.0,245.6,0.03,9.7,9.8,"12:11:04",1
"17/03/21","12:30",0.4,10.2,95.8,999.8,293.5,2.0,3.2,307.9,0.03,9.6,10.0,"12:26:24",1
"17/03/21","12:40",0.8,10.3,95.8,1000.0,300.0,2.1,3.1,327.5,0.03,9.7,10.0,"12:35:20",1
"17/03/21","12:50",0.6,10.1,95.9,1000.3,292.3,1.7,3.2,330.9,0.03,9.5,9.9,"12:41:14",1
"17/03/21","13:00",0.6,10.2,95.8,999.8,306.6,1.8,3.1,331.2,0.05,9.6,9.9,"12:55:52",1
"17/03/21","13:10",0.4,10.2,95.6,999.8,302.6,1.7,2.9,336.2,0.05,9.6,9.9,"13:03:20",1
"17/03/21","13:20",0.4,10.1,95.1,999.8,289.3,1.8,3.3,310.4,0.02,9.4,10.1,"13:19:52",1
"17/03/21","13:30",0.4,9.9,95.0,1000.0,301.8,2.3,4.4,317.3,0.01,9.2,10.0,"13:28:48",1
"17/03/21","13:40",0.2,9.8,94.8,1000.0,307.1,2.8,4.2,327.0,0.02,9.0,9.9,"13:33:28",1
"17/03/21","13:50",0.4,9.7,94.7,1000.0,317.2,2.8,5.0,337.5,0.05,8.9,10.0,"13:45:28",1
"17/03/21","14:00",0.2,9.7,92.2,1000.3,328.8,4.4,6.8,341.3,0.05,8.5,9.8,"13:52:20",1
"17/03/21","14:10",0.2,9.7,89.0,1000.5,334.6,4.4,7.4,339.9,0.13,8.0,10.2,"14:05:04",1
"17/03/21","14:20",0.0,9.7,86.5,1000.5,334.4,4.1,6.5,314.9,0.14,7.6,10.1,"14:16:08",1
"17/03/21","14:30",0.0,9.8,86.1,1000.5,328.8,3.9,5.7,343.0,0.10,7.6,10.1,"14:20:48",1
"17/03/21","14:40",0.0,9.7,85.3,1000.3,334.6,3.1,4.8,345.2,0.11,7.4,9.8,"14:36:08",1
"17/03/21","14:50",0.0,10.0,84.3,1000.3,333.4,3.1,5.5,344.6,0.16,7.5,10.1,"14:45:04",1
"17/03/21","15:00",0.0,10.2,84.9,1000.3,329.7,4.1,6.3,329.4,0.19,7.8,10.2,"14:54:40",1
"17/03/21","15:10",0.0,10.2,83.5,1000.5,326.7,4.1,5.9,325.7,0.24,7.6,10.1,"15:05:36",1
"17/03/21","15:20",0.0,10.3,82.8,1000.8,334.7,3.7,6.0,351.7,0.20,7.5,10.3,"15:15:28",1
"17/03/21","15:30",0.0,10.2,82.5,1000.8,338.7,3.6,6.3,327.1,0.16,7.4,10.4,"15:21:20",1
"17/03/21","15:40",0.0,10.3,82.9,1001.0,334.0,2.8,4.9,337.4,0.17,7.6,10.2,"15:36:40",1
"17/03/21","15:50",0.0,10.4,82.6,1001.0,333.6,2.1,4.2,306.1,0.14,7.6,10.4,"15:41:52",1
"17/03/21","16:00",0.0,10.5,81.1,1000.8,339.2,1.3,2.7,320.8,0.11,7.4,10.3,"15:53:12",1
"17/03/21","16:10",0.0,10.8,80.8,1000.8,294.4,1.2,3.3,330.4,0.08,7.7,10.3,"16:01:36",1
"17/03/21","16:20",0.0,10.8,80.3,1001.0,315.3,1.8,5.4,329.3,0.12,7.6,10.3,"16:13:28",1
"17/03/21","16:30",0.0,11.1,78.0,1001.2,318.4,1.3,2.6,330.9,0.15,7.5,10.6,"16:25:44",1
"17/03/21","16:40",0.0,11.1,78.3,1001.0,298.0,2.1,4.2,332.3,0.11,7.5,10.7,"16:37:44",1
"17/03/21","16:50",0.0,11.1,78.3,1000.8,284.5,1.7,3.7,315.5,0.11,7.5,10.5,"16:49:44",1
"17/03/21","17:00",0.0,11.1,77.2,1001.2,301.1,1.6,4.5,338.8,0.10,7.3,10.5,"16:59:44",1
"17/03/21","17:10",0.0,10.8,77.1,1001.2,315.9,3.1,6.4,315.2,0.08,7.0,10.6,"17:00:56",1
"17/03/21","17:20",0.0,10.6,78.1,1001.2,291.6,1.7,3.9,313.3,0.05,7.0,10.7,"17:10:02",1
"17/03/21","17:30",0.0,10.3,79.8,1001.2,303.2,3.0,4.7,339.2,0.03,7.0,10.6,"17:21:52",1
"17/03/21","17:40",0.0,9.9,80.6,1001.2,295.6,2.1,3.9,317.3,0.02,6.8,10.4,"17:30:08",1
"17/03/21","17:50",0.0,9.7,80.3,1001.5,289.6,2.7,7.0,338.3,0.00,6.5,10.6,"17:48:00",1
"17/03/21","18:00",0.0,9.7,80.3,1001.9,320.1,2.3,4.3,312.3,0.00,6.5,10.5,"17:51:44",1
"17/03/21","18:10",0.0,9.5,80.2,1001.2,316.7,3.7,8.8,333.1,0.00,6.3,10.5,"18:08:56",1
"17/03/21","18:20",0.0,9.5,79.0,1001.7,320.6,4.9,8.5,331.3,0.00,6.1,10.4,"18:10:02",1
"17/03/21","18:30",0.0,9.5,78.3,1001.9,317.4,4.5,8.1,322.4,0.00,6.0,10.2,"18:20:08",1
"17/03/21","18:40",0.0,9.4,79.5,1002.2,318.3,3.7,8.2,323.5,0.00,6.1,10.2,"18:30:16",1
"17/03/21","18:50",0.0,8.9,81.3,1001.9,313.1,3.6,5.5,339.1,0.00,5.9,9.9,"18:40:16",1
"17/03/21","19:00",0.0,8.8,80.9,1002.4,326.4,3.5,5.7,334.8,0.00,5.7,9.9,"18:52:08",1
"17/03/21","19:10",0.0,8.9,79.4,1002.6,327.3,4.4,7.1,324.4,0.00,5.6,10.0,"19:00:56",1
"17/03/21","19:20",0.0,8.9,79.8,1002.9,319.1,3.9,6.6,336.4,0.00,5.6,9.9,"19:16:40",1
"17/03/21","19:30",0.0,8.7,81.9,1002.9,314.9,3.5,7.1,314.0,0.00,5.8,9.9,"19:23:10",1
"17/03/21","19:40",0.0,8.4,83.8,1003.1,304.5,2.5,4.9,323.7,0.00,5.9,9.8,"19:36:04",1
"17/03/21","19:50",0.2,8.2,84.5,1002.9,314.4,3.0,6.5,329.6,0.00,5.8,9.7,"19:47:52",1
"17/03/21","20:00",0.0,7.9,85.2,1003.4,316.5,3.1,5.1,325.6,0.00,5.6,9.6,"19:59:12",1
"17/03/21","20:10",0.0,8.1,84.5,1003.4,326.5,3.5,6.0,344.3,0.00,5.7,9.7,"20:06:48",1
"17/03/21","20:20",0.0,8.1,85.0,1003.6,303.6,2.0,4.4,336.2,0.00,5.8,9.3,"20:10:32",1
"17/03/21","20:30",0.2,7.9,86.4,1003.6,294.3,2.1,3.1,328.5,0.00,5.8,9.7,"20:21:52",1
"17/03/21","20:40",0.0,7.7,87.8,1003.6,303.4,2.5,4.3,317.6,0.00,5.8,9.6,"20:35:48",1
"17/03/21","20:50",0.0,8.0,85.9,1004.1,319.6,4.4,7.9,305.5,0.00,5.8,9.3,"20:47:18",1
"17/03/21","21:00",0.0,7.8,86.0,1004.3,305.8,2.5,5.4,330.4,0.00,5.6,9.4,"20:55:52",1
"17/03/21","21:10",0.0,7.7,85.7,1004.3,310.6,2.8,4.2,343.3,0.00,5.5,9.2,"21:07:42",1
"17/03/21","21:20",0.0,7.9,84.4,1004.3,305.6,2.6,4.8,346.5,0.00,5.5,9.2,"21:14:08",1
"17/03/21","21:30",0.0,7.8,83.6,1004.8,321.6,2.6,5.7,337.4,0.00,5.2,9.4,"21:23:44",1
"17/03/21","21:40",0.0,7.8,82.1,1004.8,314.0,2.8,5.0,326.2,0.00,5.0,9.3,"21:39:44",1
"17/03/21","21:50",0.0,7.9,80.8,1005.2,317.9,3.7,6.8,350.4,0.00,4.8,9.2,"21:47:36",1
"17/03/21","22:00",0.0,7.9,81.7,1005.5,325.4,4.5,8.5,322.6,0.00,5.0,9.3,"21:57:46",1
"17/03/21","22:10",0.0,7.5,83.3,1005.2,323.3,3.0,5.2,341.1,0.00,4.9,8.8,"22:03:48",1
"17/03/21","22:20",0.0,7.4,83.7,1006.0,314.1,3.1,5.7,306.3,0.00,4.9,9.1,"22:10:08",1
"17/03/21","22:30",0.0,7.4,82.9,1006.0,318.9,2.7,5.7,311.1,0.00,4.7,8.8,"22:20:18",1
"17/03/21","22:40",0.0,7.4,82.7,1005.7,303.5,2.5,4.7,329.1,0.00,4.7,9.0,"22:32:18",1
"17/03/21","22:50",0.0,7.1,84.6,1006.2,305.3,2.1,3.3,318.6,0.00,4.7,8.9,"22:41:28",1
"17/03/21","23:00",0.2,7.1,86.2,1006.2,306.0,2.6,3.9,337.4,0.00,5.0,8.7,"22:52:28",1
"17/03/21","23:10",0.2,6.9,87.1,1006.4,296.4,2.3,5.6,324.3,0.00,4.9,8.7,"23:00:32",1
"17/03/21","23:20",0.0,6.8,86.2,1006.2,323.0,3.0,5.4,313.4,0.00,4.7,8.9,"23:19:24",1
"17/03/21","23:30",0.0,7.0,83.9,1006.7,329.2,2.7,4.5,342.3,0.00,4.5,8.7,"23:25:42",1
"17/03/21","23:40",0.0,7.0,80.7,1006.7,317.3,3.2,6.6,334.1,0.00,4.0,8.7,"23:38:44",1
"17/03/21","23:50",0.0,7.0,79.4,1007.1,326.4,3.4,7.4,331.9,0.00,3.7,8.7,"23:44:20",1
"17/03/21","24:00",0.0,6.8,77.5,1007.8,321.5,3.7,8.1,328.7,0.00,3.2,8.7,"23:59:52",1
